[[{"header":{"parameterUnit":"m.s-1","parameterCategory":2,"la1":30.2991,"la2":30.254,"lo1":-89.0895,"lo2":-89.0444,"dy":0.0017,"dx":0.0017,"nx":28,"ny":28,"refTime":"2024-07-15T21:00:00:Z","depth":"0","parameterNumber":2,"parameterNumberName":"U-component_of_CURRENTS"},"data":[0,0,0,0,0,0,0,0,0,0,0,0,0,0,0,0,0,0,0,0,0,0,0,0,0,0,0,0,0,0,0,0,0,0,0,0,0,0,0,0,0,0,0,0,0,0,0,0,0,0,0,0,0,0,0,0,0,0,0.3473,0.3474,0,0.3486,0.3485,0.3485,0.3477,0.3477,0.3477,0.3476,0.3582,0.3584,0.3587,0,0,0,0,0,0,0,0,0,0,0,0,0,0.3319,0.3322,0.3473,0.3474,0.3474,0.3486,0.3485,0.3485,0.3477,0.3477,0.3477,0.3476,0.3581,0.3584,0.3587,0,0,0,0,0,0,0,0,0,0,0,0,0,0.3361,0.3323,0.3473,0.3473,0.3474,0.3486,0.3485,0.3485,0.3477,0.3477,0.3476,0.3476,0.3579,0.3584,0.3588,0.3618,0,0,0.3601,0.3603,0,0,0,0,0,0,0,0,0.3359,0.3367,0.3473,0.3473,0.3474,0.3482,0.347,0.3535,0.3477,0.3472,0.3476,0.3476,0.3559,0.3565,0.3562,0.3623,0.3627,0.3602,0.3604,0.3606,0.3607,0,0,0,0,0,0,0,0.3356,0.3365,0.3475,0.3473,0.3474,0.3431,0.3437,0.3481,0.3516,0.3473,0.3473,0.3479,0.3559,0.3558,0.3565,0.3629,0.3601,0.3605,0.3608,0.361,0.3708,0.3707,0,0,0,0,0,0,0.3368,0.3364,0.3475,0.3476,0.3418,0.3434,0.3442,0.3477,0.3513,0.3519,0.3479,0.3479,0.355,0.356,0.3569,0.3569,0.3606,0.361,0.3613,0.3708,0.3708,0.3707,0,0,0,0,0,0,0.3366,0.3379,0.3474,0.342,0.3429,0.3439,0.3477,0.3478,0.3467,0.3518,0.3524,0.3469,0.3551,0.3563,0.3587,0.3575,0.3612,0.3616,0.3708,0.3708,0.3708,0.3595,0,0,0,0,0,0,0.3362,0.3379,0.3396,0.3422,0.3433,0.3468,0.3478,0.3478,0.3474,0.3473,0.3512,0.3521,0.3551,0.358,0.3591,0.3581,0.3619,0.3708,0.3708,0.3708,0.3598,0.3591,0.3584,0,0,0,0,0,0.3356,0.3388,0.3397,0.341,0.3462,0.3468,0.3468,0.347,0.3473,0.3461,0.3484,0.3519,0.3588,0.3583,0.3596,0.3587,0.3708,0.3708,0.3708,0.3602,0.3592,0.3584,0,0,0,0,0,0,0.3328,0.3391,0.3402,0.3451,0.3451,0.3467,0.3464,0.3465,0.3471,0.3475,0.3514,0.3525,0.3544,0.3587,0.358,0.3619,0.3657,0.3659,0.3572,0.3564,0.3557,0.3556,0.3623,0,0,0,0,0,0.3333,0.3374,0.3405,0.3437,0.3441,0.3448,0.3449,0.345,0.3466,0.3466,0.3484,0.3521,0.3556,0.3574,0.361,0.3631,0.3662,0.3639,0.3631,0.3625,0.3636,0.3687,0.3685,0.3707,0.3707,0.3707,0,0,0.3336,0.3369,0.3396,0.3432,0.3437,0.3424,0.3447,0.3449,0.3425,0.3482,0.3455,0.3496,0.3557,0.357,0.3584,0.3602,0.3621,0.3625,0.3618,0.3633,0.3687,0.3685,0.3683,0.3707,0.3707,0.3707,0,0,0.3339,0.3386,0.3406,0.3401,0.3409,0.3408,0.3405,0.3408,0.3397,0.3388,0.3424,0.3454,0.3492,0.3527,0.3556,0.354,0.3582,0.3555,0.3517,0.3565,0.3563,0.3563,0.3531,0.3528,0.355,0.355,0.355,0,0.3334,0.336,0.3403,0.3396,0.3377,0.3396,0.337,0.3366,0.3366,0.3365,0.3368,0.3432,0.3474,0.3511,0.3499,0.3523,0.3535,0.3535,0.3554,0.3554,0.3555,0.3524,0.3523,0.3545,0.3545,0.3546,0.3546,0,0.3334,0.3337,0.334,0.3339,0.3325,0.3307,0.3305,0.3288,0.328,0.3286,0.3306,0.3357,0.3402,0.3416,0.345,0.3483,0.3477,0.3534,0.3567,0.3546,0.3514,0.3514,0.3537,0.3539,0.3541,0.3542,0,0,0.3355,0.3345,0.3338,0.3304,0.3285,0.327,0.3239,0.3221,0.3208,0.322,0.3212,0.327,0.3313,0.3351,0.3401,0.3442,0.3429,0.3483,0.3488,0.3435,0.3476,0.3227,0.3204,0.3491,0.3492,0.3493,0.3424,0,0.3323,0.3287,0.329,0.322,0.3187,0.3181,0.3146,0.3139,0.3141,0.3141,0.3211,0.3234,0.3284,0.3306,0.3354,0.3431,0.3438,0.3439,0.3521,0.3522,0.3292,0.32,0.3034,0.2939,0.3425,0.3425,0.3425,0,0.3289,0.3271,0.3204,0.3141,0.3128,0.3095,0.3045,0.3023,0.305,0.3059,0.3111,0.3165,0.3226,0.3276,0.337,0.3368,0.3407,0.3456,0.3456,0.3273,0.3275,0.3057,0.2923,0.2867,0.3427,0.3427,0.3427,0,0.323,0.3188,0.3124,0.3101,0.3055,0.3025,0.3005,0.3005,0.2982,0.3023,0.3023,0.3111,0.3144,0.3239,0.3304,0.3351,0.3384,0.3467,0.3267,0.3248,0.3148,0.3116,0.2961,0.352,0.352,0.352,0.352,0,0.316,0.3107,0.3097,0.3054,0.2994,0.2982,0.2926,0.2927,0.293,0.2903,0.2989,0.2988,0.3144,0.3175,0.3264,0.3211,0.3344,0.322,0.321,0.3091,0.3057,0.304,0.3024,0.3517,0.3518,0.3519,0.3519,0,0.3083,0.3069,0.3001,0.2967,0.2955,0.2916,0.2873,0.2844,0.2854,0.2823,0.283,0.2894,0.2907,0.2993,0.3111,0.3101,0.2998,0.3079,0.2863,0.2826,0.2544,0.2527,0.2262,0.2226,0.2834,0.2827,0.2822,0,0.3035,0.2991,0.2943,0.292,0.2903,0.2857,0.2821,0.2808,0.2773,0.2753,0.2731,0.2727,0.2686,0.2689,0.2693,0.2688,0.2732,0.2508,0.2563,0.244,0.2422,0.238,0.2373,0.2384,0.2375,0.2368,0.2362,0,0.2957,0.2941,0.2909,0.2852,0.2811,0.2756,0.2708,0.2664,0.2631,0.2589,0.2512,0.2472,0.2404,0.2293,0.2231,0.2248,0.2318,0.2351,0.2339,0.2101,0.1942,0.1931,0.2479,0.2299,0.2305,0.231,0.2313,0.2316,0.2916,0.2883,0.2836,0.2763,0.2724,0.2636,0.2535,0.2488,0.2389,0.223,0.2296,0.2122,0.2016,0.1891,0.1875,0.1703,0.1823,0.1685,0.1687,0.1666,0.1564,0.1876,0.1612,0.1614,0.1616,0.1618,0.1619,0,0.2812,0.2781,0.2743,0.263,0.2527,0.2538,0.2423,0.228,0.2102,0.1997,0.1867,0.1644,0.1481,0.1415,0.1232,0.111,0.1168,0.1076,0.1083,0.1133,0.1516,0.1432,0.0975,0.0975,0.0975,0.0975,0.0975,0.0975,0.2766,0.2678,0.2637,0.2438,0.2361,0.2155,0.2058,0.188,0.1749,0.1456,0.1252,0.1188,0.1099,0.0865,0.0702,0.0697,0.0728,0.0552,0.0682,0.1049,0.1112,0.1173,0.1094,0.0573,0.0572,0.0295,0.0292,0.029]},{"header":{"parameterUnit":"m.s-1","parameterCategory":2,"la1":30.2991,"la2":30.254,"lo1":-89.0895,"lo2":-89.0444,"dy":0.0017,"dx":0.0017,"nx":28,"ny":28,"refTime":"2024-07-15T21:00:00:Z","depth":"0","parameterNumber":3,"parameterNumberName":"V-component_of_CURRENTS"},"data":[0,0,0,0,0,0,0,0,0,0,0,0,0,0,0,0,0,0,0,0,0,0,0,0,0,0,0,0,0,0,0,0,0,0,0,0,0,0,0,0,0,0,0,0,0,0,0,0,0,0,0,0,0,0,0,0,0,0,0.0886,0.0888,0,0.1052,0.1054,0.1056,0.1112,0.1112,0.1111,0.111,0.1281,0.1286,0.1291,0,0,0,0,0,0,0,0,0,0,0,0,0,0.061,0.0615,0.0886,0.0888,0.089,0.1052,0.1054,0.1056,0.1113,0.1112,0.1111,0.111,0.1279,0.1285,0.1292,0,0,0,0,0,0,0,0,0,0,0,0,0,0.0748,0.0617,0.0885,0.0937,0.0944,0.1051,0.1054,0.1057,0.1113,0.1112,0.1111,0.111,0.1277,0.1285,0.1292,0.136,0,0,0.1316,0.1319,0,0,0,0,0,0,0,0,0.074,0.0758,0.0928,0.0934,0.0941,0.106,0.1019,0.1158,0.1113,0.1049,0.111,0.1109,0.1208,0.1222,0.1255,0.1368,0.1375,0.1317,0.1321,0.1325,0.1327,0,0,0,0,0,0,0,0.0731,0.0752,0.0951,0.093,0.0938,0.095,0.0969,0.1046,0.1132,0.1054,0.1059,0.1078,0.1212,0.1247,0.1259,0.1378,0.1316,0.1323,0.1328,0.1331,0.154,0.1541,0,0,0,0,0,0,0.0713,0.0743,0.0946,0.0956,0.0836,0.0956,0.0977,0.1023,0.1131,0.1147,0.1078,0.108,0.1235,0.125,0.1266,0.1358,0.1325,0.1332,0.1336,0.1539,0.154,0.1541,0,0,0,0,0,0,0.0707,0.0731,0.0939,0.0851,0.0878,0.0962,0.1013,0.1027,0.106,0.115,0.1165,0.1096,0.1235,0.1255,0.1348,0.1365,0.1335,0.1342,0.1538,0.1539,0.1541,0.1539,0,0,0,0,0,0,0.0699,0.0728,0.0757,0.0851,0.0883,0.1005,0.1015,0.1031,0.1074,0.1077,0.1171,0.1186,0.1235,0.1336,0.1355,0.1375,0.1348,0.1537,0.1539,0.154,0.1538,0.1541,0.1543,0,0,0,0,0,0.0689,0.0738,0.0758,0.0782,0.0921,0.1006,0.1024,0.1078,0.1075,0.1101,0.1167,0.1183,0.1359,0.1344,0.1366,0.1388,0.1536,0.1538,0.154,0.1537,0.154,0.1542,0,0,0,0,0,0,0.0643,0.0751,0.0775,0.0857,0.0922,0.1015,0.1048,0.1076,0.1149,0.115,0.1217,0.1239,0.1321,0.1357,0.1338,0.145,0.1441,0.1448,0.1431,0.1435,0.1437,0.142,0.1355,0,0,0,0,0,0.0644,0.0704,0.0798,0.0861,0.0892,0.0965,0.1004,0.104,0.1115,0.1144,0.1208,0.1275,0.135,0.1392,0.146,0.1537,0.1528,0.1557,0.1559,0.1561,0.1561,0.1562,0.1563,0.1548,0.1548,0.1548,0,0,0.0645,0.0709,0.0746,0.0853,0.0907,0.0964,0.0986,0.1049,0.1097,0.1154,0.1236,0.1292,0.1372,0.1456,0.1493,0.1488,0.1558,0.1563,0.1564,0.1564,0.1564,0.1565,0.1566,0.1549,0.1549,0.1549,0,0,0.0661,0.0731,0.0776,0.0829,0.0908,0.0963,0.0975,0.1065,0.1105,0.1195,0.124,0.1305,0.1422,0.148,0.1525,0.1579,0.157,0.1592,0.1597,0.1598,0.1599,0.1599,0.1573,0.1572,0.1592,0.1592,0.1592,0,0.0653,0.0729,0.0799,0.0845,0.0891,0.0957,0.1004,0.1066,0.1172,0.1215,0.1216,0.1373,0.1432,0.1534,0.1552,0.1584,0.157,0.1582,0.1598,0.1599,0.16,0.1573,0.1571,0.1593,0.1593,0.1592,0.1592,0,0.0697,0.0752,0.0781,0.0866,0.0924,0.0977,0.1065,0.1122,0.1169,0.123,0.1328,0.1406,0.1491,0.1518,0.1562,0.1607,0.159,0.1599,0.1586,0.1601,0.1572,0.157,0.1593,0.1593,0.1593,0.1593,0,0,0.0704,0.0792,0.08,0.0833,0.0936,0.0992,0.1074,0.1178,0.1232,0.131,0.1375,0.1489,0.1509,0.1558,0.1604,0.1612,0.1603,0.1606,0.1606,0.1569,0.158,0.1557,0.1552,0.161,0.161,0.161,0.1551,0,0.0715,0.0773,0.0832,0.0904,0.0949,0.1033,0.1108,0.1205,0.1284,0.1364,0.1431,0.151,0.1532,0.1563,0.1579,0.1613,0.1601,0.1617,0.1581,0.158,0.1549,0.1551,0.152,0.1464,0.1549,0.1549,0.1549,0,0.0746,0.078,0.0828,0.0924,0.0953,0.1007,0.1134,0.121,0.1335,0.1391,0.1465,0.1518,0.1576,0.1567,0.1596,0.1603,0.1585,0.1587,0.1585,0.1564,0.1554,0.1469,0.1457,0.1522,0.1545,0.1546,0.1546,0,0.0712,0.0793,0.0822,0.0853,0.0964,0.1009,0.108,0.1212,0.1285,0.1394,0.1436,0.1518,0.1542,0.1551,0.1568,0.1576,0.1566,0.1576,0.1529,0.1526,0.1494,0.1488,0.1533,0.1558,0.1558,0.1558,0.1558,0,0.0718,0.0754,0.0801,0.0822,0.0887,0.0973,0.1062,0.1152,0.1261,0.1337,0.1427,0.1477,0.1534,0.1551,0.1556,0.1537,0.1549,0.1524,0.1514,0.1491,0.1486,0.1537,0.1565,0.1556,0.1557,0.1557,0.1557,0,0.0701,0.0725,0.077,0.0843,0.0871,0.092,0.1041,0.1109,0.1203,0.1293,0.1318,0.1432,0.1457,0.1496,0.1507,0.1508,0.1521,0.148,0.1439,0.1426,0.1454,0.1481,0.1462,0.1538,0.1422,0.1421,0.142,0,0.0708,0.0713,0.076,0.0786,0.0821,0.0894,0.0954,0.107,0.1135,0.1265,0.1295,0.1353,0.1398,0.1413,0.143,0.1418,0.1473,0.1373,0.1393,0.1449,0.1473,0.1479,0.1547,0.1338,0.1337,0.1335,0.1335,0,0.072,0.0713,0.0737,0.0766,0.0815,0.0879,0.0957,0.0992,0.1118,0.1172,0.1237,0.1275,0.1318,0.1325,0.1331,0.1328,0.1423,0.135,0.1425,0.1426,0.1416,0.1486,0.137,0.1325,0.1326,0.1327,0.1327,0.1328,0.0724,0.073,0.0731,0.0766,0.0814,0.0855,0.088,0.0945,0.1007,0.1066,0.113,0.1157,0.1241,0.1261,0.1268,0.1313,0.135,0.133,0.1357,0.1359,0.1443,0.1295,0.1237,0.1237,0.1238,0.1238,0.1238,0,0.0718,0.0716,0.0743,0.0769,0.079,0.0827,0.088,0.0877,0.0892,0.0963,0.0983,0.1055,0.1117,0.1203,0.1284,0.1327,0.1368,0.1368,0.1392,0.1468,0.1342,0.1355,0.1298,0.1298,0.1298,0.1298,0.1298,0.1298,0.0721,0.0715,0.0713,0.0728,0.0745,0.0745,0.0752,0.0735,0.0767,0.0783,0.0822,0.0893,0.1092,0.1216,0.1362,0.1392,0.1526,0.1449,0.1581,0.1507,0.1507,0.1507,0.1529,0.151,0.151,0.1706,0.1708,0.1709]}],[{"header":{"parameterUnit":"m.s-1","parameterCategory":2,"la1":30.2991,"la2":30.254,"lo1":-89.0895,"lo2":-89.0444,"dy":0.0017,"dx":0.0017,"nx":28,"ny":28,"refTime":"2024-07-15T21:00:00:Z","depth":"2","parameterNumber":2,"parameterNumberName":"U-component_of_CURRENTS"},"data":[0,0,0,0,0,0,0,0,0,0,0,0,0,0,0,0,0,0,0,0,0,0,0,0,0,0,0,0,0,0,0,0,0,0,0,0,0,0,0,0,0,0,0,0,0,0,0,0,0,0,0,0,0,0,0,0,0,0,0.2833,0.2838,0,0.3046,0.3046,0.3045,0.3101,0.3102,0.3104,0.3106,0.3322,0.3326,0.333,0,0,0,0,0,0,0,0,0,0,0,0,0,0.2483,0.2487,0.2833,0.2838,0.2844,0.3046,0.3046,0.3045,0.31,0.3102,0.3104,0.3106,0.332,0.3325,0.333,0,0,0,0,0,0,0,0,0,0,0,0,0,0.2629,0.2488,0.2832,0.292,0.2932,0.3046,0.3046,0.3045,0.31,0.3102,0.3105,0.3107,0.3318,0.3325,0.3331,0.332,0,0,0.335,0.3353,0,0,0,0,0,0,0,0,0.262,0.2637,0.2901,0.2914,0.2929,0.3078,0.3004,0.3149,0.3099,0.3002,0.3106,0.3108,0.326,0.3271,0.3259,0.333,0.334,0.3351,0.3355,0.3357,0.3359,0,0,0,0,0,0,0,0.261,0.2629,0.2884,0.2908,0.2925,0.2955,0.2973,0.3029,0.3089,0.3011,0.3023,0.3097,0.3263,0.3253,0.3265,0.3343,0.3351,0.3356,0.336,0.3363,0.3435,0.3433,0,0,0,0,0,0,0.2646,0.2619,0.2878,0.2894,0.2814,0.2961,0.2981,0.3001,0.3089,0.3114,0.3095,0.31,0.3241,0.3258,0.3274,0.3334,0.3357,0.3363,0.3367,0.3436,0.3434,0.3432,0,0,0,0,0,0,0.2636,0.2664,0.287,0.279,0.2823,0.2967,0.2987,0.3004,0.3025,0.316,0.3178,0.3107,0.3243,0.3265,0.3343,0.3341,0.3366,0.3372,0.3439,0.3436,0.3433,0.3414,0,0,0,0,0,0,0.2624,0.2657,0.2689,0.2791,0.283,0.2955,0.2989,0.3008,0.3082,0.3089,0.3175,0.3196,0.3247,0.3333,0.3349,0.3351,0.3377,0.3441,0.3437,0.3434,0.3417,0.3411,0.3405,0,0,0,0,0,0.2609,0.2677,0.2687,0.2723,0.2865,0.2959,0.2976,0.3067,0.308,0.3086,0.3147,0.3194,0.332,0.3338,0.3357,0.336,0.3443,0.3438,0.3434,0.3419,0.3412,0.3405,0,0,0,0,0,0,0.2584,0.2694,0.2708,0.2813,0.2883,0.2981,0.3045,0.3067,0.3109,0.3142,0.3197,0.3222,0.329,0.3311,0.3327,0.3359,0.3378,0.3377,0.336,0.3353,0.3348,0.3327,0.3382,0,0,0,0,0,0.2583,0.2634,0.2736,0.2821,0.2856,0.2927,0.2985,0.3041,0.3112,0.3131,0.317,0.322,0.3276,0.3308,0.3361,0.3387,0.3388,0.3386,0.338,0.3376,0.3365,0.3398,0.3396,0.3418,0.3418,0.3418,0,0,0.2603,0.2681,0.2711,0.2816,0.2873,0.2907,0.2959,0.3068,0.3083,0.3154,0.3167,0.3225,0.3282,0.3321,0.3347,0.3346,0.3354,0.337,0.3367,0.3359,0.3393,0.3392,0.339,0.3415,0.3416,0.3416,0,0,0.2656,0.272,0.2755,0.2803,0.2928,0.2955,0.298,0.3054,0.3073,0.3112,0.3162,0.3203,0.3264,0.3291,0.3318,0.33,0.3339,0.3316,0.3268,0.33,0.3299,0.3299,0.3242,0.3237,0.3296,0.3296,0.3296,0,0.2679,0.2733,0.2787,0.2833,0.2885,0.2957,0.2983,0.3008,0.3089,0.3096,0.3123,0.3184,0.3237,0.3274,0.3267,0.3291,0.3298,0.3303,0.3297,0.3297,0.3297,0.3239,0.3234,0.3295,0.3295,0.3295,0.3295,0,0.2731,0.2778,0.2821,0.2853,0.2887,0.2963,0.2999,0.3013,0.3035,0.3053,0.3098,0.3153,0.3182,0.3196,0.3239,0.3254,0.3251,0.3307,0.3325,0.3295,0.3233,0.3228,0.3293,0.3293,0.3294,0.3294,0,0,0.2779,0.2833,0.2854,0.2847,0.2917,0.2947,0.2957,0.2977,0.298,0.3023,0.3016,0.308,0.311,0.3137,0.3186,0.3201,0.319,0.3253,0.3255,0.3211,0.3212,0.286,0.2821,0.3279,0.328,0.328,0.3149,0,0.2805,0.2854,0.2875,0.2891,0.29,0.2935,0.2913,0.2941,0.2964,0.2966,0.3022,0.305,0.3089,0.312,0.3143,0.3212,0.3186,0.3216,0.3233,0.3231,0.2938,0.2807,0.274,0.2589,0.3145,0.3144,0.3143,0,0.2858,0.2868,0.2878,0.2869,0.2874,0.288,0.2867,0.2871,0.2895,0.2915,0.2953,0.3003,0.3031,0.3079,0.3119,0.3153,0.3163,0.3188,0.3186,0.2863,0.2869,0.2718,0.2559,0.3135,0.3136,0.3136,0.3137,0,0.283,0.2887,0.2877,0.2887,0.2867,0.2866,0.2862,0.2864,0.2851,0.2896,0.2897,0.2954,0.2985,0.3034,0.3054,0.3116,0.3076,0.3169,0.2833,0.2808,0.2745,0.2709,0.316,0.316,0.316,0.3161,0.3161,0,0.2845,0.285,0.2877,0.2847,0.2834,0.2843,0.2818,0.2824,0.2832,0.2798,0.2877,0.2868,0.2992,0.2984,0.3019,0.2847,0.3034,0.2759,0.2736,0.2718,0.2684,0.3182,0.3186,0.3156,0.3157,0.3158,0.3159,0,0.2812,0.2834,0.2811,0.2798,0.2805,0.2796,0.2783,0.2761,0.2781,0.2748,0.2757,0.2811,0.2773,0.28,0.2847,0.2733,0.2658,0.2558,0.2451,0.241,0.2379,0.2385,0.2152,0.2138,0.2126,0.2116,0.2108,0,0.2801,0.2788,0.2761,0.2753,0.2754,0.2754,0.273,0.2733,0.2705,0.2687,0.2659,0.2629,0.2522,0.2367,0.2285,0.2141,0.2348,0.1891,0.1945,0.2265,0.2271,0.2294,0.2314,0.1875,0.1866,0.1858,0.1852,0,0.274,0.2737,0.2704,0.2681,0.2671,0.2638,0.2621,0.2576,0.2551,0.2486,0.239,0.2298,0.2151,0.1935,0.1691,0.1638,0.1896,0.1705,0.2142,0.2072,0.1975,0.1989,0.2026,0.1783,0.179,0.1795,0.1799,0.1801,0.271,0.2679,0.2626,0.263,0.2601,0.2508,0.2414,0.2368,0.2237,0.2057,0.2113,0.1864,0.1792,0.1326,0.1249,0.1197,0.1311,0.1268,0.1308,0.1354,0.1275,0.1155,0.0793,0.0794,0.0795,0.0796,0.0797,0,0.2617,0.2592,0.2575,0.2489,0.2411,0.243,0.2311,0.2146,0.1917,0.1769,0.1609,0.1289,0.1064,0.1039,0.0844,0.0696,0.0904,0.0669,0.1019,0.108,0.1137,0.1067,0.0521,0.052,0.0519,0.0519,0,0,0.2549,0.2479,0.2467,0.2326,0.2273,0.2059,0.1956,0.1721,0.1546,0.1193,0.1,0.0958,0.0913,0.0693,0.0654,0.0569,0.0847,0.0545,0.0765,0.1239,0.1297,0.1458,0.1408,0,0,0,0,0]},{"header":{"parameterUnit":"m.s-1","parameterCategory":2,"la1":30.2991,"la2":30.254,"lo1":-89.0895,"lo2":-89.0444,"dy":0.0017,"dx":0.0017,"nx":28,"ny":28,"refTime":"2024-07-15T21:00:00:Z","depth":"2","parameterNumber":3,"parameterNumberName":"V-component_of_CURRENTS"},"data":[0,0,0,0,0,0,0,0,0,0,0,0,0,0,0,0,0,0,0,0,0,0,0,0,0,0,0,0,0,0,0,0,0,0,0,0,0,0,0,0,0,0,0,0,0,0,0,0,0,0,0,0,0,0,0,0,0,0,0.0025,0.003,0,0.0376,0.0379,0.0381,0.0532,0.0533,0.0534,0.0535,0.0826,0.0833,0.0839,0,0,0,0,0,0,0,0,0,0,0,0,0,-0.0261,-0.026,0.0025,0.0031,0.0037,0.0376,0.0379,0.0382,0.0532,0.0533,0.0534,0.0536,0.0824,0.0832,0.084,0,0,0,0,0,0,0,0,0,0,0,0,0,-0.0065,-0.0259,0.0024,0.0166,0.0184,0.0375,0.0379,0.0383,0.0531,0.0533,0.0535,0.0536,0.0821,0.0831,0.0841,0.087,0,0,0.0872,0.0876,0,0,0,0,0,0,0,0,-0.0076,-0.0057,0.0139,0.0157,0.0177,0.0428,0.0386,0.0549,0.0531,0.038,0.0535,0.0537,0.0698,0.0719,0.0755,0.0883,0.0896,0.0873,0.0879,0.0883,0.0886,0,0,0,0,0,0,0,-0.0091,-0.0069,0.0145,0.0146,0.0169,0.0302,0.0327,0.0418,0.051,0.0393,0.041,0.0478,0.0706,0.0745,0.0763,0.09,0.0872,0.0881,0.0888,0.0891,0.107,0.1069,0,0,0,0,0,0,-0.0112,-0.0084,0.0134,0.0158,0.0073,0.0306,0.0333,0.0331,0.0511,0.0546,0.0476,0.0484,0.0727,0.0751,0.0774,0.0939,0.0883,0.0892,0.0898,0.1072,0.107,0.1069,0,0,0,0,0,0,-0.0121,-0.0099,0.012,0.0065,0.0104,0.0309,0.0305,0.0337,0.0423,0.0578,0.0608,0.0536,0.0729,0.076,0.091,0.0947,0.0897,0.0906,0.1073,0.1071,0.1069,0.1192,0,0,0,0,0,0,-0.0132,-0.0107,-0.0095,0.006,0.0107,0.0277,0.0307,0.0344,0.0469,0.0483,0.0639,0.0665,0.0733,0.0895,0.092,0.096,0.0914,0.1075,0.1072,0.107,0.119,0.1195,0.1199,0,0,0,0,0,-0.0145,-0.0104,-0.0099,-0.0068,0.0105,0.0282,0.0317,0.0457,0.047,0.053,0.0633,0.0663,0.0893,0.0906,0.0935,0.0978,0.1076,0.1073,0.107,0.1188,0.1194,0.1199,0,0,0,0,0,0,-0.02,-0.0079,-0.007,0.0005,0.0142,0.0315,0.0407,0.047,0.0593,0.0622,0.0706,0.0742,0.0877,0.0886,0.0896,0.1001,0.0965,0.0968,0.1043,0.105,0.1054,0.1006,0.0922,0,0,0,0,0,-0.022,-0.0171,-0.0034,0.0035,0.0091,0.0232,0.0326,0.0427,0.056,0.0617,0.0709,0.0785,0.0874,0.0936,0.1015,0.1106,0.1062,0.112,0.1125,0.113,0.1098,0.1076,0.1078,0.1059,0.1059,0.1059,0,0,-0.0219,-0.0138,-0.011,0.0028,0.0128,0.0234,0.0289,0.0462,0.056,0.0629,0.0768,0.0837,0.0902,0.1016,0.1066,0.1043,0.1111,0.1126,0.1132,0.1096,0.1073,0.1076,0.1078,0.1057,0.1058,0.1058,0,0,-0.0165,-0.0136,-0.0077,0.0023,0.0208,0.0297,0.0342,0.0513,0.0596,0.0746,0.08,0.0875,0.1019,0.1062,0.11,0.1155,0.1148,0.1173,0.1173,0.1156,0.1158,0.1159,0.1122,0.1119,0.1165,0.1165,0.1165,0,-0.0152,-0.0084,-0.0016,0.0076,0.0179,0.0307,0.0413,0.0514,0.0719,0.0776,0.0803,0.0953,0.1021,0.1118,0.114,0.1172,0.1158,0.1177,0.1168,0.1168,0.1167,0.1128,0.1124,0.117,0.117,0.1169,0.1169,0,-0.0059,0.0004,0.0064,0.0179,0.0282,0.0429,0.0557,0.066,0.075,0.0834,0.0961,0.1039,0.1105,0.1134,0.1179,0.1205,0.1198,0.1198,0.1172,0.1178,0.1135,0.1128,0.1178,0.1176,0.1175,0.1173,0,0,-0.0025,0.0101,0.0129,0.0177,0.0365,0.0461,0.0598,0.0754,0.0834,0.0956,0.103,0.1142,0.115,0.1182,0.1224,0.1204,0.1208,0.1208,0.1204,0.12,0.1171,0.1149,0.1139,0.1241,0.124,0.1239,0.1151,0,0.0052,0.0188,0.0254,0.0397,0.0469,0.0592,0.0693,0.0835,0.095,0.1043,0.109,0.1178,0.1182,0.1227,0.1212,0.1227,0.1193,0.1231,0.1135,0.1131,0.1137,0.113,0.1049,0.0962,0.1143,0.1142,0.1141,0,0.0164,0.0217,0.0348,0.0468,0.0512,0.0615,0.0785,0.0901,0.1036,0.111,0.1172,0.122,0.1237,0.1222,0.1188,0.123,0.119,0.1167,0.1164,0.1084,0.1095,0.0976,0.0942,0.1129,0.113,0.1131,0.1132,0,0.017,0.0319,0.0413,0.0463,0.0594,0.0678,0.0774,0.0924,0.1016,0.114,0.1191,0.1232,0.1254,0.1209,0.1176,0.1195,0.1112,0.1126,0.1049,0.1047,0.0918,0.0906,0.1051,0.1051,0.1052,0.1052,0.1052,0,0.026,0.0337,0.0418,0.0456,0.0563,0.0665,0.0808,0.0907,0.1039,0.1117,0.1204,0.1249,0.1254,0.1232,0.1176,0.109,0.1102,0.1026,0.1019,0.0958,0.0951,0.104,0.104,0.1049,0.1049,0.105,0.1051,0,0.0274,0.0348,0.0423,0.0521,0.0568,0.064,0.0811,0.0896,0.1021,0.1121,0.1151,0.1257,0.1234,0.1208,0.114,0.1089,0.1005,0.0963,0.0886,0.0872,0.0948,0.0955,0.0863,0.0861,0.086,0.0859,0.0858,0,0.0323,0.0356,0.0419,0.0468,0.0527,0.0644,0.0728,0.0874,0.0957,0.1111,0.1135,0.1184,0.1192,0.1099,0.1025,0.0909,0.0946,0.0774,0.0778,0.0924,0.0927,0.0936,0.0944,0.0653,0.065,0.0648,0.0647,0,0.0346,0.0356,0.0378,0.0447,0.0539,0.0619,0.0747,0.0792,0.0946,0.1008,0.1073,0.109,0.1061,0.0943,0.0848,0.0773,0.0795,0.0729,0.0886,0.0731,0.0724,0.0728,0.0743,0.0628,0.063,0.0631,0.0632,0.0633,0.0353,0.0347,0.0365,0.0474,0.0553,0.0607,0.0653,0.0743,0.0816,0.0887,0.0942,0.0923,0.0904,0.0723,0.0678,0.0643,0.0658,0.0603,0.061,0.0619,0.0628,0.0621,0.0506,0.0507,0.0508,0.0508,0.0509,0,0.0329,0.0343,0.0406,0.048,0.0557,0.0606,0.0677,0.0679,0.0704,0.0737,0.0761,0.0646,0.0589,0.0588,0.0488,0.046,0.0483,0.0464,0.0473,0.0487,0.0501,0.0508,0.0352,0.0352,0.0353,0.0353,0,0,0.0305,0.0328,0.0366,0.0493,0.0557,0.0578,0.0593,0.0555,0.0557,0.049,0.0469,0.0529,0.0523,0.043,0.0403,0.0363,0.0443,0.0367,0.0475,0.0496,0.0511,0.054,0.056,0,0,0,0,0]}],[{"header":{"parameterUnit":"m.s-1","parameterCategory":2,"la1":30.2991,"la2":30.254,"lo1":-89.0895,"lo2":-89.0444,"dy":0.0017,"dx":0.0017,"nx":28,"ny":28,"refTime":"2024-07-15T21:00:00:Z","depth":"4","parameterNumber":2,"parameterNumberName":"U-component_of_CURRENTS"},"data":[0,0,0,0,0,0,0,0,0,0,0,0,0,0,0,0,0,0,0,0,0,0,0,0,0,0,0,0,0,0,0,0,0,0,0,0,0,0,0,0,0,0,0,0,0,0,0,0,0,0,0,0,0,0,0,0,0,0,-0.0426,-0.0427,0,-0.05,-0.0501,-0.0501,-0.0503,-0.0503,-0.0502,-0.0502,-0.0524,-0.0525,-0.0526,0,0,0,0,0,0,0,0,0,0,0,0,0,-0.0365,-0.0365,-0.0426,-0.0427,-0.0428,-0.05,-0.0501,-0.0501,-0.0504,-0.0503,-0.0502,-0.0502,-0.0524,-0.0525,-0.0526,0,0,0,0,0,0,0,0,0,0,0,0,0,-0.0407,-0.0366,-0.0426,-0.0441,-0.0444,-0.05,-0.0501,-0.0501,-0.0504,-0.0503,-0.0502,-0.0501,-0.0523,-0.0525,-0.0527,-0.0552,0,0,-0.0532,-0.0532,0,0,0,0,0,0,0,0,-0.0404,-0.0408,-0.0438,-0.044,-0.0443,-0.0495,-0.0488,-0.0517,-0.0504,-0.0477,-0.0502,-0.0501,-0.0513,-0.0515,-0.0526,-0.0553,-0.0554,-0.0532,-0.0533,-0.0533,-0.0534,0,0,0,0,0,0,0,-0.0401,-0.0406,-0.0451,-0.0439,-0.0443,-0.0472,-0.0476,-0.0494,-0.0494,-0.0479,-0.048,-0.0495,-0.0513,-0.0524,-0.0526,-0.0555,-0.0532,-0.0533,-0.0534,-0.0535,-0.057,-0.057,0,0,0,0,0,0,-0.0397,-0.0402,-0.0449,-0.0454,-0.0426,-0.0474,-0.0478,-0.0476,-0.0495,-0.0499,-0.0496,-0.0495,-0.0522,-0.0525,-0.0527,-0.046,-0.0533,-0.0535,-0.0536,-0.057,-0.057,-0.057,0,0,0,0,0,0,-0.0395,-0.04,-0.0446,-0.0434,-0.0443,-0.0475,-0.0474,-0.0478,-0.0483,-0.0509,-0.0511,-0.0495,-0.0522,-0.0525,-0.0504,-0.0465,-0.0536,-0.0537,-0.057,-0.057,-0.057,-0.0389,0,0,0,0,0,0,-0.0393,-0.0398,-0.0407,-0.0433,-0.0443,-0.048,-0.0475,-0.048,-0.0496,-0.0495,-0.051,-0.0512,-0.0521,-0.0501,-0.0505,-0.0468,-0.0538,-0.057,-0.057,-0.057,-0.0395,-0.0383,-0.0372,0,0,0,0,0,-0.039,-0.0401,-0.0407,-0.0414,-0.045,-0.0481,-0.0489,-0.0507,-0.0496,-0.0505,-0.0482,-0.0511,-0.0505,-0.05,-0.0506,-0.0469,-0.057,-0.057,-0.057,-0.04,-0.0385,-0.0373,0,0,0,0,0,0,-0.0385,-0.0403,-0.041,-0.0427,-0.0454,-0.0483,-0.051,-0.0505,-0.0498,-0.0481,-0.0492,-0.0492,-0.0463,-0.0507,-0.0502,-0.0489,-0.0551,-0.0552,-0.0421,-0.0407,-0.0396,-0.0406,-0.054,0,0,0,0,0,-0.0388,-0.0401,-0.0422,-0.0444,-0.0458,-0.048,-0.0498,-0.0492,-0.049,-0.0487,-0.046,-0.0463,-0.0473,-0.0469,-0.0481,-0.0466,-0.056,-0.0459,-0.0447,-0.0437,-0.0454,-0.0604,-0.0607,-0.0569,-0.0569,-0.0569,0,0,-0.0398,-0.0412,-0.0422,-0.0446,-0.0473,-0.0467,-0.0488,-0.0502,-0.0461,-0.049,-0.0408,-0.0415,-0.0463,-0.0428,-0.0424,-0.0453,-0.048,-0.0437,-0.0426,-0.0451,-0.0604,-0.0608,-0.0612,-0.0569,-0.0569,-0.0569,0,0,-0.0419,-0.0433,-0.0447,-0.0454,-0.0478,-0.0472,-0.047,-0.0452,-0.0419,-0.0346,-0.0363,-0.0366,-0.0321,-0.0369,-0.039,-0.0347,-0.0416,-0.0324,-0.0263,-0.0405,-0.041,-0.0415,-0.0459,-0.047,-0.0317,-0.0316,-0.0316,0,-0.0427,-0.0432,-0.0461,-0.0463,-0.0452,-0.0464,-0.044,-0.0421,-0.0371,-0.0342,-0.0296,-0.0294,-0.0313,-0.0359,-0.0298,-0.0323,-0.0366,-0.0292,-0.0389,-0.0397,-0.0406,-0.0451,-0.0465,-0.0307,-0.0308,-0.0309,-0.031,0,-0.0442,-0.0439,-0.0452,-0.0437,-0.043,-0.0418,-0.0381,-0.0329,-0.0255,-0.0228,-0.0199,-0.0219,-0.0225,-0.0228,-0.0215,-0.0282,-0.0274,-0.0353,-0.0414,-0.0399,-0.0446,-0.0464,-0.0295,-0.0298,-0.0301,-0.0303,0,0,-0.045,-0.0456,-0.0456,-0.0432,-0.0395,-0.0385,-0.0311,-0.0265,-0.0234,-0.0159,-0.0146,-0.0122,-0.0123,-0.0154,-0.0183,-0.0281,-0.032,-0.0288,-0.0299,-0.0311,-0.0536,-0.0358,-0.0361,-0.0388,-0.0392,-0.0395,-0.0514,0,-0.0443,-0.0436,-0.0419,-0.0369,-0.0348,-0.0302,-0.0236,-0.0187,-0.0136,-0.0118,-0.0166,-0.0152,-0.0103,-0.0087,-0.017,-0.0319,-0.0371,-0.0275,-0.057,-0.0578,-0.0408,-0.038,-0.0408,-0.0528,-0.0533,-0.0536,-0.0538,0,-0.0441,-0.0428,-0.0385,-0.0314,-0.0299,-0.0239,-0.0151,-0.0096,-0.0096,-0.0054,-0.0068,-0.0094,-0.0176,-0.0165,-0.0373,-0.029,-0.0359,-0.0478,-0.0488,-0.0412,-0.0436,-0.0575,-0.0573,-0.0571,-0.0568,-0.0566,-0.0563,0,-0.0435,-0.039,-0.0346,-0.0323,-0.025,-0.0178,-0.0111,-0.0065,-0.0041,-0.0031,-0.005,-0.0122,-0.0197,-0.0317,-0.0438,-0.0393,-0.0721,-0.0728,-0.0639,-0.0626,-0.0834,-0.0829,-0.0886,-0.0886,-0.0886,-0.0885,-0.0885,0,-0.0409,-0.0384,-0.0328,-0.0305,-0.0216,-0.0146,-0.0074,-0.0013,-0.0009,-0.0044,-0.0015,-0.0095,-0.024,-0.0409,-0.0485,-0.0596,-0.0749,-0.0617,-0.0659,-0.0741,-0.0725,-0.0842,-0.0835,-0.089,-0.0889,-0.0888,-0.0887,0,-0.042,-0.0395,-0.0356,-0.0265,-0.0219,-0.0148,-0.0052,-0.0045,0.001,-0.006,-0.0051,-0.0127,-0.0236,-0.0387,-0.0643,-0.0659,-0.0806,-0.0812,-0.0837,-0.0882,-0.0582,-0.0566,-0.0681,-0.0676,-0.0672,-0.0669,-0.0666,0,-0.0429,-0.041,-0.0352,-0.0324,-0.0268,-0.0166,-0.0129,-0.0033,-0.0065,-0.0093,-0.0181,-0.0234,-0.0276,-0.0478,-0.0612,-0.0713,-0.0716,-0.0785,-0.0677,-0.0539,-0.057,-0.0559,-0.0548,-0.0659,-0.0658,-0.0657,-0.0656,0,-0.0441,-0.0437,-0.042,-0.0376,-0.0317,-0.0277,-0.022,-0.0212,-0.0166,-0.0181,-0.0197,-0.019,-0.0319,-0.0393,-0.0466,-0.0568,-0.0742,-0.074,-0.0747,-0.0646,-0.0514,-0.0546,-0.054,-0.0641,-0.0643,-0.0644,-0.0645,0,-0.0472,-0.0475,-0.0471,-0.0412,-0.0381,-0.0353,-0.0305,-0.0282,-0.0247,-0.0236,-0.0271,-0.0286,-0.0332,-0.0324,-0.0443,-0.045,-0.0404,-0.0427,-0.045,-0.0467,-0.0338,-0.0135,-0.0177,0,0,0,0,0,-0.0477,-0.049,-0.0494,-0.0445,-0.0438,-0.039,-0.0377,-0.035,-0.0321,-0.0299,-0.0231,-0.0277,-0.0245,-0.0288,-0.0241,-0.0381,-0.0465,-0.0334,-0.0518,-0.0559,-0.0576,-0.0441,0,0,0,0,0,0,-0.0482,-0.0507,-0.0515,-0.049,-0.0447,-0.043,-0.039,-0.0376,-0.034,-0.0298,-0.0276,-0.0248,-0.0242,-0.0237,-0.0227,-0.0239,-0.0346,-0.0335,-0.0334,-0.055,-0.0565,-0.0579,-0.0445,0,0,0,0,0]},{"header":{"parameterUnit":"m.s-1","parameterCategory":2,"la1":30.2991,"la2":30.254,"lo1":-89.0895,"lo2":-89.0444,"dy":0.0017,"dx":0.0017,"nx":28,"ny":28,"refTime":"2024-07-15T21:00:00:Z","depth":"4","parameterNumber":3,"parameterNumberName":"V-component_of_CURRENTS"},"data":[0,0,0,0,0,0,0,0,0,0,0,0,0,0,0,0,0,0,0,0,0,0,0,0,0,0,0,0,0,0,0,0,0,0,0,0,0,0,0,0,0,0,0,0,0,0,0,0,0,0,0,0,0,0,0,0,0,0,0.02,0.0201,0,0.0325,0.0327,0.0329,0.0453,0.0454,0.0454,0.0455,0.0417,0.0415,0.0413,0,0,0,0,0,0,0,0,0,0,0,0,0,0.0177,0.0177,0.02,0.0201,0.0202,0.0325,0.0327,0.033,0.0452,0.0454,0.0455,0.0456,0.0418,0.0415,0.0413,0,0,0,0,0,0,0,0,0,0,0,0,0,0.024,0.0177,0.02,0.0272,0.0279,0.0324,0.0327,0.033,0.0452,0.0454,0.0455,0.0456,0.0418,0.0416,0.0413,0.0369,0,0,0.0404,0.0403,0,0,0,0,0,0,0,0,0.0236,0.0242,0.0261,0.0267,0.0275,0.0368,0.0305,0.0333,0.0452,0.0395,0.0455,0.0457,0.0379,0.038,0.0414,0.0367,0.0366,0.0404,0.0402,0.0401,0.0401,0,0,0,0,0,0,0,0.0232,0.0238,0.0258,0.0261,0.027,0.0335,0.0345,0.0313,0.0381,0.04,0.0407,0.0408,0.0383,0.0417,0.0413,0.0365,0.0404,0.0402,0.04,0.0399,0.0285,0.0284,0,0,0,0,0,0,0.0193,0.0233,0.0254,0.0261,0.0249,0.0333,0.0345,0.0343,0.0385,0.0392,0.0407,0.0413,0.0421,0.0416,0.0412,0.0367,0.0401,0.0399,0.0397,0.0287,0.0285,0.0284,0,0,0,0,0,0,0.0192,0.0193,0.0249,0.0244,0.0254,0.033,0.0328,0.0345,0.042,0.0391,0.0396,0.0469,0.0422,0.0416,0.0388,0.0366,0.0397,0.0395,0.0288,0.0286,0.0284,0.0273,0,0,0,0,0,0,0.019,0.0192,0.0205,0.0241,0.0253,0.0303,0.0327,0.0346,0.0412,0.0423,0.0444,0.0441,0.0422,0.0392,0.0386,0.0363,0.0393,0.029,0.0287,0.0285,0.0275,0.027,0.0267,0,0,0,0,0,0.0189,0.0199,0.0205,0.0209,0.0258,0.0303,0.0319,0.0382,0.0414,0.0456,0.0442,0.0442,0.0371,0.0389,0.0381,0.0357,0.0291,0.0288,0.0285,0.0276,0.0271,0.0267,0,0,0,0,0,0,0.0202,0.0212,0.022,0.0234,0.0273,0.0322,0.0381,0.0402,0.0436,0.0449,0.0426,0.042,0.0383,0.0372,0.0392,0.0315,0.033,0.0325,0.0326,0.0321,0.0317,0.0329,0.0391,0,0,0,0,0,0.02,0.0222,0.0233,0.0258,0.0286,0.0339,0.0375,0.0402,0.042,0.0445,0.0425,0.0401,0.0358,0.0346,0.031,0.0274,0.0289,0.0251,0.0247,0.0244,0.0247,0.0235,0.0231,0.0273,0.0273,0.0274,0,0,0.0211,0.0225,0.0236,0.0265,0.0321,0.0337,0.0371,0.0434,0.0426,0.0422,0.0417,0.0387,0.0345,0.0297,0.028,0.029,0.0245,0.024,0.0238,0.0243,0.0231,0.0227,0.0224,0.0271,0.0272,0.0272,0,0,0.0247,0.0267,0.0299,0.0321,0.0375,0.0384,0.0403,0.0437,0.0452,0.0424,0.0403,0.0364,0.0316,0.027,0.0243,0.0196,0.0221,0.0186,0.0179,0.0167,0.0164,0.0161,0.0206,0.0207,0.0188,0.0188,0.0188,0,0.0264,0.0288,0.032,0.0349,0.0365,0.04,0.0421,0.0426,0.0427,0.0407,0.0421,0.0321,0.0297,0.0215,0.0202,0.0187,0.021,0.0203,0.0164,0.0162,0.0159,0.0205,0.0207,0.0187,0.0187,0.0187,0.0188,0,0.03,0.033,0.0367,0.0391,0.0408,0.0447,0.0426,0.0428,0.0427,0.0396,0.0331,0.0285,0.0235,0.0205,0.0195,0.0145,0.0179,0.016,0.0183,0.0155,0.0205,0.0207,0.0186,0.0186,0.0187,0.0187,0,0,0.0309,0.0375,0.0392,0.0411,0.0431,0.0447,0.0424,0.04,0.0375,0.0339,0.0283,0.0214,0.0203,0.0171,0.0139,0.012,0.0136,0.0144,0.0144,0.0202,0.016,0.0067,0.0061,0.0117,0.0116,0.0116,0.0215,0,0.0341,0.0397,0.0406,0.044,0.0464,0.046,0.043,0.0395,0.0355,0.0293,0.0231,0.0182,0.0184,0.0172,0.0144,0.0109,0.0136,0.0114,0.0167,0.017,0.0099,0.0056,0.0114,0.0216,0.0217,0.0217,0.0218,0,0.0362,0.0397,0.0446,0.046,0.0473,0.048,0.0443,0.0418,0.0326,0.0298,0.0231,0.018,0.0123,0.0143,0.0116,0.0107,0.0159,0.0152,0.0155,0.007,0.0077,0.0241,0.0222,0.0221,0.0221,0.0221,0.0221,0,0.0354,0.0413,0.0458,0.0467,0.0482,0.0497,0.0499,0.043,0.0393,0.0318,0.0274,0.0191,0.015,0.0163,0.0162,0.0156,0.0144,0.0134,0.0115,0.0113,0.0181,0.0182,0.0175,0.0175,0.0174,0.0174,0.0174,0,0.0349,0.0387,0.0476,0.0497,0.0519,0.0529,0.052,0.0496,0.0432,0.033,0.0304,0.0192,0.0156,0.0119,0.0158,0.0126,0.0165,0.0108,0.0109,0.0178,0.0177,0.0185,0.0185,0.0178,0.0177,0.0176,0.0176,0,0.0313,0.0384,0.0439,0.0505,0.0526,0.0546,0.0558,0.0513,0.0497,0.036,0.0347,0.0208,0.0119,0.0118,0.0102,0.0106,0.011,0.0129,0.0241,0.0248,0.0103,0.0101,0.0083,0.008,0.0077,0.0075,0.0073,0,0.0296,0.0332,0.0448,0.0474,0.0517,0.0554,0.0545,0.0548,0.0453,0.0322,0.0204,0.0123,0.0019,-0.0012,-0.004,0.0036,0.0051,0.0122,0.0064,0.008,0.0084,0.0086,0.0088,0.0069,0.0069,0.0068,0.0067,0,0.0238,0.0314,0.0349,0.0424,0.046,0.0456,0.0429,0.0378,0.0295,0.0286,0.0114,0.0066,-0.0069,-0.0115,-0.0031,0.001,0.008,0.0095,0.01,0.0047,0.0063,0.007,0.0075,0.0059,0.006,0.0061,0.0061,0,0.0198,0.0209,0.0286,0.0341,0.0372,0.0326,0.034,0.0245,0.0205,0.0073,-0.0009,-0.0073,-0.0123,-0.0133,-0.0094,-0.0051,-0.0066,0.0,0.001,0.002,-0.0064,-0.0056,-0.0106,0,0,0,0,0,0.0142,0.0147,0.0182,0.0224,0.0251,0.0275,0.0213,0.02,0.0121,0.0015,0.0027,-0.0081,-0.011,-0.0152,-0.0127,-0.0202,-0.0091,-0.0177,-0.0014,0.001,0.002,-0.0083,0,0,0,0,0,0,0.0094,0.0117,0.0148,0.0122,0.0137,0.0123,0.0105,0.0055,-0.0008,-0.0052,-0.0056,-0.0051,-0.0075,-0.0092,-0.0112,-0.0121,-0.0011,-0.0186,-0.0185,0.0004,0.0013,0.0021,-0.0081,0,0,0,0,0]}]]